Terug naar catalogus

COSMOS 1481 DEB

LostHEO
NORAD 20412·DEBRIS·🇷🇺 Russia

Gelanceerd Jul 8, 1983 vanaf Plesetsk Cosmodrome

Loading…

Volgende Passages (komende 24 uur)

TLE

VerouderdSource: Space-Track

Epoch: Jul 1, 2021, 02:30 UTC

1 20412U 83070F   21182.10418991 -.00000439  00000-0  00000+0 0  9990
2 20412  72.4428  11.0296 5757339 296.9772  16.1734  2.04358807236165

Volg COSMOS 1481 DEB in realtime met AllMySat

Download on the App Store